TimeMDT,TemperatureF,Dew PointF,Humidity,Sea Level PressureIn,VisibilityMPH,Wind Direction,Wind SpeedMPH,Gust SpeedMPH,PrecipitationIn,Events,Conditions,WindDirDegrees,DateUTC
12:08 AM,46.4,12.2,25,30.11,10.0,North,9.2,-,N/A,,Clear,350,2012-10-06 06:08:00
12:25 AM,44.6,10.4,25,30.10,10.0,NNW,11.5,-,N/A,,Clear,340,2012-10-06 06:25:00
12:45 AM,44.6,12.2,27,30.10,10.0,NNW,9.2,-,N/A,,Clear,340,2012-10-06 06:45:00
1:10 AM,44.6,12.2,27,30.10,10.0,North,10.4,-,N/A,,Scattered Clouds,350,2012-10-06 07:10:00
1:24 AM,44.6,12.2,27,30.10,10.0,NNW,10.4,-,N/A,,Scattered Clouds,340,2012-10-06 07:24:00
1:51 AM,44.6,12.2,27,30.10,10.0,NNW,11.5,-,N/A,,Clear,330,2012-10-06 07:51:00
2:14 AM,42.8,14.0,31,30.11,10.0,NW,11.5,-,N/A,,Clear,320,2012-10-06 08:14:00
2:35 AM,42.8,14.0,31,30.11,10.0,NW,9.2,-,N/A,,Clear,310,2012-10-06 08:35:00
2:45 AM,42.8,14.0,31,30.11,10.0,WNW,11.5,-,N/A,,Clear,300,2012-10-06 08:45:00
3:11 AM,44.6,12.2,27,30.11,10.0,NW,10.4,-,N/A,,Clear,310,2012-10-06 09:11:00
3:34 AM,42.8,12.2,29,30.10,10.0,NW,10.4,-,N/A,,Clear,310,2012-10-06 09:34:00
3:53 AM,42.8,14.0,31,30.10,10.0,NW,10.4,-,N/A,,Clear,310,2012-10-06 09:53:00
4:12 AM,42.8,12.2,29,30.10,10.0,NW,8.1,-,N/A,,Clear,310,2012-10-06 10:12:00
4:35 AM,42.8,12.2,29,30.10,10.0,WNW,10.4,-,N/A,,Clear,300,2012-10-06 10:35:00
4:55 AM,42.8,10.4,27,30.10,10.0,NW,11.5,-,N/A,,Clear,320,2012-10-06 10:55:00
5:06 AM,44.6,10.4,25,30.10,10.0,NW,11.5,-,N/A,,Clear,320,2012-10-06 11:06:00
5:27 AM,42.8,8.6,25,30.10,10.0,NNW,9.2,-,N/A,,Clear,340,2012-10-06 11:27:00
5:55 AM,46.4,6.8,20,30.10,10.0,NW,16.1,21.9,N/A,,Clear,320,2012-10-06 11:55:00
6:04 AM,44.6,6.8,21,30.11,10.0,NW,15.0,-,N/A,,Clear,320,2012-10-06 12:04:00
6:34 AM,44.6,6.8,21,30.12,10.0,NNW,15.0,-,N/A,,Clear,330,2012-10-06 12:34:00
6:48 AM,42.8,6.8,23,30.12,10.0,NNW,13.8,-,N/A,,Clear,330,2012-10-06 12:48:00
7:05 AM,42.8,6.8,23,30.12,10.0,NW,16.1,-,N/A,,Clear,310,2012-10-06 13:05:00
7:31 AM,44.6,6.8,21,30.12,10.0,NW,16.1,-,N/A,,Clear,310,2012-10-06 13:31:00
7:46 AM,46.4,6.8,20,30.12,10.0,NW,16.1,-,N/A,,Clear,310,2012-10-06 13:46:00
8:15 AM,46.4,6.8,20,30.13,10.0,NW,20.7,26.5,N/A,,Clear,320,2012-10-06 14:15:00
8:35 AM,46.4,5.0,18,30.13,10.0,NW,20.7,26.5,N/A,,Clear,310,2012-10-06 14:35:00
8:45 AM,46.4,6.8,20,30.14,10.0,NW,20.7,-,N/A,,Clear,320,2012-10-06 14:45:00
9:10 AM,50.0,6.8,17,30.14,10.0,NNW,20.7,27.6,N/A,,Clear,330,2012-10-06 15:10:00
9:33 AM,53.6,6.8,15,30.13,10.0,NNW,23.0,33.4,N/A,,Clear,330,2012-10-06 15:33:00
9:55 AM,53.6,6.8,15,30.12,10.0,NW,26.5,29.9,N/A,,Clear,310,2012-10-06 15:55:00
10:10 AM,53.6,6.8,15,30.13,10.0,NNW,25.3,32.2,N/A,,Clear,340,2012-10-06 16:10:00
10:32 AM,53.6,6.8,15,30.13,10.0,NNW,27.6,35.7,N/A,,Clear,330,2012-10-06 16:32:00
10:47 AM,55.4,8.6,15,30.13,10.0,NNW,24.2,33.4,N/A,,Clear,330,2012-10-06 16:47:00
11:11 AM,59.0,8.6,14,30.13,10.0,NNW,28.8,36.8,N/A,,Clear,330,2012-10-06 17:11:00
11:35 AM,59.0,6.8,13,30.12,10.0,NNW,24.2,35.7,N/A,,Clear,330,2012-10-06 17:35:00
11:55 AM,59.0,3.2,11,30.12,10.0,NW,29.9,39.1,N/A,,Clear,310,2012-10-06 17:55:00
12:06 PM,59.0,3.2,11,30.12,10.0,NW,27.6,39.1,N/A,,Clear,310,2012-10-06 18:06:00
12:31 PM,59.0,3.2,11,30.10,10.0,NW,28.8,39.1,N/A,,Clear,320,2012-10-06 18:31:00
12:55 PM,60.8,3.2,10,30.10,10.0,NW,25.3,35.7,N/A,,Clear,320,2012-10-06 18:55:00
1:15 PM,60.8,-2.2,8,30.09,10.0,NNW,26.5,35.7,N/A,,Clear,330,2012-10-06 19:15:00
1:31 PM,60.8,-4.0,7,30.08,10.0,NNW,33.4,46.0,N/A,,Clear,330,2012-10-06 19:31:00
1:45 PM,60.8,-7.6,6,30.08,10.0,NNW,26.5,43.7,N/A,,Clear,330,2012-10-06 19:45:00
2:11 PM,60.8,-7.6,6,30.06,10.0,NNW,24.2,34.5,N/A,,Clear,330,2012-10-06 20:11:00
2:35 PM,60.8,-11.2,5,30.05,10.0,NNW,20.7,39.1,N/A,,Clear,330,2012-10-06 20:35:00
2:47 PM,60.8,-9.4,6,30.05,10.0,NW,24.2,32.2,N/A,,Clear,320,2012-10-06 20:47:00
3:06 PM,60.8,-11.2,5,30.05,10.0,NNW,20.7,35.7,N/A,,Clear,340,2012-10-06 21:06:00
3:24 PM,60.8,-13.0,5,30.05,10.0,NNW,19.6,35.7,N/A,,Clear,330,2012-10-06 21:24:00
3:55 PM,60.8,-13.0,5,30.05,10.0,NNW,20.7,33.4,N/A,,Clear,340,2012-10-06 21:55:00
4:15 PM,60.8,-11.2,5,30.04,10.0,North,24.2,31.1,N/A,,Clear,350,2012-10-06 22:15:00
4:32 PM,60.8,-11.2,5,30.04,10.0,NNW,20.7,31.1,N/A,,Clear,330,2012-10-06 22:32:00
5:15 PM,59.0,-9.4,6,30.04,10.0,NNW,18.4,26.5,N/A,,Clear,330,2012-10-06 23:15:00
5:24 PM,59.0,-7.6,6,30.03,10.0,NNW,23.0,28.8,N/A,,Clear,330,2012-10-06 23:24:00
5:48 PM,59.0,-5.8,7,30.04,10.0,NNW,19.6,25.3,N/A,,Clear,330,2012-10-06 23:48:00
6:15 PM,55.4,-5.8,8,30.05,10.0,NNW,18.4,26.5,N/A,,Clear,330,2012-10-07 00:15:00
6:28 PM,53.6,-4.0,9,30.05,10.0,NNW,19.6,25.3,N/A,,Clear,330,2012-10-07 00:28:00
6:45 PM,53.6,-4.0,9,30.06,10.0,NNW,13.8,18.4,N/A,,Clear,340,2012-10-07 00:45:00
7:11 PM,50.0,-4.0,11,30.07,10.0,NNW,13.8,19.6,N/A,,Clear,340,2012-10-07 01:11:00
7:34 PM,48.2,-4.0,11,30.07,10.0,North,12.7,-,N/A,,Clear,350,2012-10-07 01:34:00
7:43 PM,48.2,-5.8,10,30.07,10.0,NNW,12.7,-,N/A,,Clear,340,2012-10-07 01:43:00
8:09 PM,44.6,-5.8,12,30.09,10.0,NW,9.2,-,N/A,,Clear,320,2012-10-07 02:09:00
8:26 PM,42.8,-4.0,14,30.09,10.0,NW,10.4,-,N/A,,Clear,320,2012-10-07 02:26:00
8:50 PM,42.8,-4.0,14,30.09,10.0,NW,12.7,-,N/A,,Clear,310,2012-10-07 02:50:00
9:09 PM,42.8,-4.0,14,30.10,10.0,NW,11.5,-,N/A,,Clear,320,2012-10-07 03:09:00
9:35 PM,44.6,-4.0,13,30.11,10.0,NW,8.1,-,N/A,,Clear,320,2012-10-07 03:35:00
9:55 PM,39.2,14.0,36,30.12,10.0,ESE,15.0,-,N/A,,Clear,110,2012-10-07 03:55:00
10:15 PM,37.4,15.8,41,30.12,10.0,ESE,8.1,-,N/A,,Clear,110,2012-10-07 04:15:00
10:35 PM,37.4,17.6,45,30.13,10.0,ESE,9.2,-,N/A,,Clear,110,2012-10-07 04:35:00
10:47 PM,35.6,15.8,44,30.13,10.0,ESE,9.2,-,N/A,,Clear,110,2012-10-07 04:47:00
11:04 PM,35.6,15.8,44,30.13,10.0,ESE,10.4,-,N/A,,Clear,110,2012-10-07 05:04:00
11:35 PM,33.8,15.8,48,30.14,10.0,SE,5.8,-,N/A,,Clear,130,2012-10-07 05:35:00
11:52 PM,33.8,17.6,52,30.14,10.0,Calm,Calm,-,N/A,,Clear,0,2012-10-07 05:52:00